| time (UTC) | temp F | wind direction | speed MPH | gust MPH | rain 1hr in | rain 24hr in | rain mn in | humidity % | barometer mb |
| 20260906210325 | 70 | 280 | 1.0 | 1.0 | 0.00 | 0.00 | 0.00 | 62 | 1017.8 |
| 20260906205820 | 69 | 31 | 1.0 | 1.0 | 0.00 | 0.00 | 0.00 | 64 | 1017.7 |
| 20260906205316 | 69 | 332 | 1.0 | 2.0 | 0.00 | 0.00 | 0.00 | 64 | 1017.8 |
| 20260906204812 | 69 | 78 | 2.0 | 2.0 | 0.00 | 0.00 | 0.00 | 65 | 1017.8 |
| 20260906204311 | 70 | 33 | 3.0 | 3.0 | 0.00 | 0.00 | 0.00 | 65 | 1017.6 |
| 20260906203810 | 70 | 23 | 3.0 | 3.0 | 0.00 | 0.00 | 0.00 | 61 | 1017.7 |
| 20260906203306 | 70 | 16 | 1.0 | 1.0 | 0.00 | 0.00 | 0.00 | 62 | 1017.5 |
| 20260906202803 | 70 | 292 | 2.0 | 2.0 | 0.00 | 0.00 | 0.00 | 59 | 1017.4 |
| 20260906202306 | 71 | 110 | 5.0 | 6.0 | 0.00 | 0.00 | 0.00 | 60 | 1017.6 |
| 20260906201756 | 71 | 9 | 2.0 | 2.0 | 0.00 | 0.00 | 0.00 | 63 | 1017.6 |
| 20260906201256 | 71 | 228 | 3.0 | 5.0 | 0.00 | 0.00 | 0.00 | 63 | 1017.5 |
| 20260906200752 | 70 | 336 | 1.0 | 1.0 | 0.00 | 0.00 | 0.00 | 62 | 1017.7 |
| 20260906200248 | 70 | 30 | 2.0 | 3.0 | 0.00 | 0.00 | 0.00 | 64 | 1017.6 |
| 20260906195743 | 70 | 102 | 1.0 | 2.0 | 0.00 | 0.00 | 0.00 | 59 | 1017.6 |
| 20260906195239 | 71 | 234 | 3.0 | 3.0 | 0.00 | 0.00 | 0.00 | 65 | 1017.7 |
| 20260906194735 | 70 | 130 | 2.0 | 2.0 | 0.00 | 0.00 | 0.00 | 65 | 1017.5 |
| 20260906194231 | 70 | 155 | 3.0 | 5.0 | 0.00 | 0.00 | 0.00 | 64 | 1017.4 |
| 20260906193725 | 70 | 191 | 1.0 | 2.0 | 0.00 | 0.00 | 0.00 | 63 | 1017.5 |
| 20260906193220 | 69 | 183 | 2.0 | 2.0 | 0.00 | 0.00 | 0.00 | 65 | 1017.6 |
| 20260906192716 | 69 | 54 | 2.0 | 3.0 | 0.00 | 0.00 | 0.00 | 65 | 1017.7 |
| 20260906192210 | 70 | 16 | 0.0 | 0.0 | 0.00 | 0.00 | 0.00 | 65 | 1017.5 |
| 20260906191710 | 70 | 36 | 4.0 | 6.0 | 0.00 | 0.00 | 0.00 | 63 | 1017.1 |
| 20260906191204 | 70 | 183 | 2.0 | 2.0 | 0.00 | 0.00 | 0.00 | 63 | 1017.6 |
| 20260906190658 | 70 | 276 | 3.0 | 3.0 | 0.00 | 0.00 | 0.00 | 63 | 1017.7 |
| 20260906190153 | 70 | 69 | 2.0 | 2.0 | 0.00 | 0.00 | 0.00 | 68 | 1017.7 |
| 20260906185652 | 69 | 328 | 1.0 | 1.0 | 0.00 | 0.00 | 0.00 | 65 | 1017.5 |
| 20260906185151 | 71 | 195 | 2.0 | 2.0 | 0.00 | 0.00 | 0.00 | 63 | 1017.5 |
| 20260906184645 | 71 | 249 | 3.0 | 3.0 | 0.00 | 0.00 | 0.00 | 64 | 1017.6 |
| 20260906184141 | 70 | 70 | 3.0 | 5.0 | 0.00 | 0.00 | 0.00 | 64 | 1017.6 |
| 20260906183636 | 71 | 220 | 3.0 | 3.0 | 0.00 | 0.00 | 0.00 | 63 | 1017.4 |
| 20260906183133 | 71 | 48 | 5.0 | 7.0 | 0.00 | 0.00 | 0.00 | 64 | 1017.4 |
| 20260906182627 | 71 | 246 | 2.0 | 3.0 | 0.00 | 0.00 | 0.00 | 65 | 1017.5 |
| 20260906182123 | 71 | 36 | 1.0 | 1.0 | 0.00 | 0.00 | 0.00 | 64 | 1017.5 |
| 20260906181618 | 71 | 254 | 2.0 | 3.0 | 0.00 | 0.00 | 0.00 | 63 | 1017.5 |
| 20260906181114 | 70 | 136 | 3.0 | 5.0 | 0.00 | 0.00 | 0.00 | 63 | 1017.6 |
| 20260906180609 | 70 | 316 | 2.0 | 5.0 | 0.00 | 0.00 | 0.00 | 64 | 1017.7 |
| 20260906180109 | 70 | 238 | 3.0 | 3.0 | 0.00 | 0.00 | 0.00 | 65 | 1017.3 |
| 20260906175608 | 70 | 77 | 1.0 | 1.0 | 0.00 | 0.00 | 0.00 | 65 | 1017.6 |
| 20260906175103 | 69 | 263 | 2.0 | 2.0 | 0.00 | 0.00 | 0.00 | 66 | 1017.6 |
| 20260906174600 | 70 | 174 | 2.0 | 2.0 | 0.00 | 0.00 | 0.00 | 67 | 1017.4 |
| 20260906174055 | 69 | 14 | 2.0 | 3.0 | 0.00 | 0.00 | 0.00 | 67 | 1017.6 |
| 20260906173550 | 70 | 152 | 1.0 | 2.0 | 0.00 | 0.00 | 0.00 | 68 | 1017.4 |
| 20260906173046 | 70 | 45 | 2.0 | 2.0 | 0.00 | 0.00 | 0.00 | 70 | 1017.7 |
| 20260906172540 | 70 | 335 | 3.0 | 3.0 | 0.00 | 0.00 | 0.00 | 68 | 1018.0 |
| 20260906172036 | 70 | 4 | 1.0 | 2.0 | 0.00 | 0.00 | 0.00 | 71 | 1017.6 |
| 20260906171531 | 70 | 136 | 2.0 | 2.0 | 0.00 | 0.00 | 0.00 | 68 | 1017.7 |
| 20260906171026 | 70 | 208 | 1.0 | 2.0 | 0.00 | 0.00 | 0.00 | 67 | 1017.8 |
| 20260906170522 | 70 | 42 | 2.0 | 3.0 | 0.00 | 0.00 | 0.00 | 66 | 1017.6 |
| 20260906170021 | 71 | 83 | 1.0 | 2.0 | 0.00 | 0.00 | 0.00 | 65 | 1017.9 |
| 20260906165518 | 70 | 30 | 1.0 | 1.0 | 0.00 | 0.00 | 0.00 | 70 | 1018.0 |
| 20260906165013 | 70 | 43 | 2.0 | 2.0 | 0.00 | 0.00 | 0.00 | 67 | 1017.9 |
| 20260906164512 | 69 | 251 | 3.0 | 3.0 | 0.00 | 0.00 | 0.00 | 68 | 1017.9 |
| 20260906164008 | 70 | 30 | 4.0 | 6.0 | 0.00 | 0.00 | 0.00 | 71 | 1017.7 |
| 20260906163504 | 70 | 311 | 2.0 | 2.0 | 0.00 | 0.00 | 0.00 | 70 | 1017.9 |
| 20260906163004 | 69 | 64 | 1.0 | 1.0 | 0.00 | 0.00 | 0.00 | 71 | 1018.2 |
| 20260906162501 | 69 | 288 | 1.0 | 1.0 | 0.00 | 0.00 | 0.00 | 71 | 1017.9 |
| 20260906161955 | 69 | 5 | 1.0 | 2.0 | 0.00 | 0.00 | 0.00 | 70 | 1018.0 |
| 20260906161450 | 69 | 347 | 1.0 | 1.0 | 0.00 | 0.00 | 0.00 | 69 | 1018.2 |
| 20260906160949 | 70 | 307 | 0.0 | 1.0 | 0.00 | 0.00 | 0.00 | 74 | 1018.3 |
| 20260906160443 | 69 | 113 | 1.0 | 1.0 | 0.00 | 0.00 | 0.00 | 76 | 1018.2 |
| 20260906155941 | 70 | 132 | 3.0 | 3.0 | 0.00 | 0.00 | 0.00 | 72 | 1018.3 |
| 20260906155439 | 69 | 41 | 0.0 | 1.0 | 0.00 | 0.00 | 0.00 | 74 | 1018.3 |
| 20260906151200 | 65 | 193 | 2.0 | 2.0 | 0.00 | 0.00 | 0.00 | 85 | 1018.4 |
| 20260906150655 | 65 | 193 | 2.0 | 2.0 | 0.00 | 0.00 | 0.00 | 85 | 1018.4 |
| 20260906150150 | 65 | 350 | 3.0 | 5.0 | 0.00 | 0.00 | 0.00 | 85 | 1018.1 |
| 20260906145649 | 65 | 48 | 1.0 | 1.0 | 0.00 | 0.00 | 0.00 | 84 | 1018.2 |
| 20260906145148 | 65 | 353 | 0.0 | 1.0 | 0.00 | 0.00 | 0.00 | 83 | 1018.1 |
| 20260906144648 | 67 | 261 | 2.0 | 5.0 | 0.00 | 0.00 | 0.00 | 82 | 1018.0 |
| 20260906144143 | 66 | 15 | 1.0 | 1.0 | 0.00 | 0.00 | 0.00 | 82 | 1018.2 |
| 20260906143643 | 67 | 36 | 1.0 | 2.0 | 0.00 | 0.00 | 0.00 | 80 | 1018.3 |
| 20260906143140 | 66 | 349 | 0.0 | 1.0 | 0.00 | 0.00 | 0.00 | 82 | 1018.1 |
| 20260906142639 | 64 | 38 | 4.0 | 6.0 | 0.00 | 0.00 | 0.00 | 86 | 1017.9 |
| 20260906142134 | 65 | 277 | 8.0 | 11.0 | 0.00 | 0.00 | 0.00 | 85 | 1018.0 |
| 20260906141633 | 65 | 354 | 1.0 | 1.0 | 0.00 | 0.00 | 0.00 | 84 | 1017.9 |
| 20260906141129 | 66 | 27 | 2.0 | 2.0 | 0.00 | 0.00 | 0.00 | 85 | 1017.9 |
| 20260906140628 | 65 | 322 | 3.0 | 3.0 | 0.00 | 0.00 | 0.00 | 86 | 1017.7 |
| 20260906140124 | 63 | 84 | 3.0 | 3.0 | 0.00 | 0.00 | 0.00 | 87 | 1017.9 |
| 20260906135621 | 63 | 60 | 3.0 | 3.0 | 0.00 | 0.00 | 0.00 | 90 | 1017.8 |
| 20260906135117 | 63 | 104 | 1.0 | 1.0 | 0.00 | 0.00 | 0.00 | 90 | 1017.6 |
| 20260906134612 | 62 | 72 | 1.0 | 1.0 | 0.00 | 0.00 | 0.00 | 91 | 1017.9 |
| 20260906134107 | 62 | 176 | 1.0 | 1.0 | 0.00 | 0.00 | 0.00 | 91 | 1017.8 |
| 20260906133602 | 62 | 265 | 1.0 | 1.0 | 0.00 | 0.00 | 0.00 | 91 | 1017.6 |
| 20260906133057 | 62 | 87 | 2.0 | 2.0 | 0.00 | 0.00 | 0.00 | 92 | 1017.9 |
| 20260906132553 | 62 | 300 | 2.0 | 5.0 | 0.00 | 0.00 | 0.00 | 91 | 1017.7 |
| 20260906132048 | 62 | 317 | 4.0 | 7.0 | 0.00 | 0.00 | 0.00 | 92 | 1017.6 |
| 20260906131543 | 61 | 15 | 0.0 | 1.0 | 0.00 | 0.00 | 0.00 | 94 | 1017.7 |
| 20260906131039 | 61 | 18 | 3.0 | 5.0 | 0.00 | 0.00 | 0.00 | 94 | 1017.6 |
| 20260906130538 | 61 | 223 | 3.0 | 3.0 | 0.00 | 0.00 | 0.00 | 95 | 1017.6 |
| 20260906130033 | 61 | 11 | 0.0 | 0.0 | 0.00 | 0.00 | 0.00 | 96 | 1017.6 |
| 20260906125530 | 60 | 21 | 1.0 | 2.0 | 0.00 | 0.00 | 0.00 | 96 | 1017.6 |
| 20260906125025 | 60 | 318 | 2.0 | 2.0 | 0.00 | 0.00 | 0.00 | 97 | 1017.6 |
| 20260906124520 | 60 | 6 | 0.0 | 0.0 | 0.00 | 0.00 | 0.00 | 98 | 1017.7 |
| 20260906124015 | 60 | 82 | 1.0 | 1.0 | 0.00 | 0.00 | 0.00 | 98 | 1017.8 |
| 20260906123514 | 60 | 12 | 0.0 | 0.0 | 0.00 | 0.00 | 0.00 | 98 | 1017.6 |
| 20260906123010 | 59 | 352 | 2.0 | 2.0 | 0.00 | 0.00 | 0.00 | 99 | 1017.6 |
| 20260906122504 | 59 | 224 | 0.0 | 1.0 | 0.00 | 0.00 | 0.00 | 99 | 1017.6 |
| 20260906122000 | 59 | 211 | 2.0 | 5.0 | 0.00 | 0.00 | 0.00 | 99 | 1017.5 |
| 20260906121456 | 59 | 342 | 2.0 | 2.0 | 0.00 | 0.00 | 0.00 | 99 | 1017.4 |
| 20260906120952 | 59 | 46 | 3.0 | 3.0 | 0.00 | 0.00 | 0.00 | 99 | 1017.5 |
| 20260906120447 | 59 | 3 | 0.0 | 0.0 | 0.00 | 0.00 | 0.00 | 99 | 1017.4 |
| 20260906115944 | 59 | 70 | 1.0 | 1.0 | 0.00 | 0.00 | 0.00 | 99 | 1017.6 |
| 20260906115439 | 58 | 17 | 1.0 | 1.0 | 0.00 | 0.00 | 0.00 | 99 | 1017.5 |
| 20260906114938 | 58 | 16 | 0.0 | 1.0 | 0.00 | 0.00 | 0.00 | 99 | 1017.3 |
| 20260906114433 | 58 | 18 | 0.0 | 0.0 | 0.00 | 0.00 | 0.00 | 99 | 1017.1 |
| 20260906113929 | 58 | 14 | 0.0 | 0.0 | 0.00 | 0.00 | 0.00 | 99 | 1017.1 |
| 20260906113427 | 58 | 328 | 1.0 | 1.0 | 0.00 | 0.00 | 0.00 | 99 | 1017.0 |
| 20260906112923 | 58 | 18 | 0.0 | 0.0 | 0.00 | 0.00 | 0.00 | 99 | 1017.3 |
| 20260906112419 | 58 | 22 | 0.0 | 1.0 | 0.00 | 0.00 | 0.00 | 99 | 1017.0 |
| 20260906111914 | 58 | 17 | 0.0 | 0.0 | 0.00 | 0.00 | 0.00 | 99 | 1017.0 |
| 20260906111413 | 58 | 38 | 0.0 | 0.0 | 0.00 | 0.00 | 0.00 | 99 | 1017.0 |
| 20260906110909 | 58 | 21 | 0.0 | 0.0 | 0.00 | 0.00 | 0.00 | 99 | 1017.1 |
| 20260906110404 | 57 | 78 | 2.0 | 2.0 | 0.00 | 0.00 | 0.00 | 99 | 1016.8 |
| 20260906105903 | 57 | 82 | 2.0 | 2.0 | 0.00 | 0.00 | 0.00 | 99 | 1016.8 |
| 20260906105359 | 57 | 22 | 0.0 | 0.0 | 0.00 | 0.00 | 0.00 | 99 | 1016.8 |
| 20260906104854 | 56 | 32 | 0.0 | 0.0 | 0.00 | 0.00 | 0.00 | 99 | 1016.7 |
| 20260906104353 | 56 | 15 | 0.0 | 0.0 | 0.00 | 0.00 | 0.00 | 99 | 1016.7 |
| 20260906103852 | 55 | 16 | 0.0 | 1.0 | 0.00 | 0.00 | 0.00 | 99 | 1016.4 |
| 20260906103350 | 56 | 347 | 1.0 | 1.0 | 0.00 | 0.00 | 0.00 | 99 | 1016.5 |
| 20260906102846 | 55 | 51 | 1.0 | 1.0 | 0.00 | 0.00 | 0.00 | 99 | 1016.3 |
| 20260906102345 | 55 | 45 | 0.0 | 1.0 | 0.00 | 0.00 | 0.00 | 99 | 1016.4 |
| 20260906101840 | 55 | 16 | 0.0 | 0.0 | 0.00 | 0.00 | 0.00 | 99 | 1016.1 |
| 20260906101335 | 55 | 16 | 0.0 | 0.0 | 0.00 | 0.00 | 0.00 | 99 | 1016.2 |
| 20260906100831 | 55 | 15 | 0.0 | 0.0 | 0.00 | 0.00 | 0.00 | 99 | 1016.1 |
| 20260906100330 | 55 | 27 | 0.0 | 0.0 | 0.00 | 0.00 | 0.00 | 99 | 1016.1 |
| 20260906095825 | 56 | 19 | 0.0 | 0.0 | 0.00 | 0.00 | 0.00 | 99 | 1016.1 |
| 20260906095321 | 56 | 14 | 0.0 | 0.0 | 0.00 | 0.00 | 0.00 | 99 | 1016.0 |
| 20260906094820 | 56 | 22 | 0.0 | 0.0 | 0.00 | 0.00 | 0.00 | 99 | 1016.0 |
| 20260906094315 | 56 | 20 | 0.0 | 0.0 | 0.00 | 0.00 | 0.00 | 99 | 1016.2 |
| 20260906093812 | 56 | 17 | 0.0 | 0.0 | 0.00 | 0.00 | 0.00 | 99 | 1016.0 |
| 20260906093307 | 56 | 12 | 0.0 | 0.0 | 0.00 | 0.00 | 0.00 | 99 | 1016.2 |
| 20260906092802 | 56 | 25 | 0.0 | 0.0 | 0.00 | 0.00 | 0.00 | 99 | 1016.0 |
| 20260906092305 | 56 | 10 | 0.0 | 0.0 | 0.00 | 0.00 | 0.00 | 99 | 1016.0 |
| 20260906091758 | 56 | 19 | 0.0 | 0.0 | 0.00 | 0.00 | 0.00 | 99 | 1015.9 |
| 20260906091254 | 56 | 22 | 0.0 | 0.0 | 0.00 | 0.00 | 0.00 | 99 | 1016.0 |
| 20260906090750 | 56 | 23 | 0.0 | 0.0 | 0.00 | 0.00 | 0.00 | 99 | 1016.0 |
| 20260906090249 | 56 | 20 | 1.0 | 1.0 | 0.00 | 0.00 | 0.00 | 99 | 1015.8 |
| 20260906085748 | 56 | 23 | 0.0 | 1.0 | 0.00 | 0.00 | 0.00 | 99 | 1015.6 |
| 20260906085248 | 56 | 15 | 1.0 | 1.0 | 0.00 | 0.00 | 0.00 | 99 | 1015.6 |
| 20260906084742 | 56 | 18 | 0.0 | 0.0 | 0.00 | 0.00 | 0.00 | 99 | 1015.8 |
| 20260906084241 | 56 | 21 | 0.0 | 0.0 | 0.00 | 0.00 | 0.00 | 99 | 1015.7 |
| 20260906083737 | 56 | 19 | 1.0 | 1.0 | 0.00 | 0.00 | 0.00 | 99 | 1015.6 |
| 20260906083232 | 57 | 15 | 1.0 | 1.0 | 0.00 | 0.00 | 0.00 | 99 | 1015.6 |
| 20260906082727 | 57 | 18 | 0.0 | 0.0 | 0.00 | 0.00 | 0.00 | 99 | 1015.5 |
| 20260906082222 | 56 | 28 | 1.0 | 1.0 | 0.00 | 0.00 | 0.00 | 99 | 1015.7 |
| 20260906081718 | 56 | 18 | 0.0 | 1.0 | 0.00 | 0.00 | 0.00 | 99 | 1015.6 |
| 20260906081214 | 57 | 18 | 0.0 | 1.0 | 0.00 | 0.00 | 0.00 | 99 | 1015.4 |
| 20260906080710 | 56 | 14 | 2.0 | 2.0 | 0.00 | 0.00 | 0.00 | 99 | 1015.3 |
| 20260906080206 | 56 | 20 | 0.0 | 0.0 | 0.00 | 0.00 | 0.00 | 99 | 1015.5 |
| 20260906075705 | 56 | 25 | 0.0 | 0.0 | 0.00 | 0.00 | 0.00 | 99 | 1015.3 |
| 20260906075201 | 56 | 7 | 0.0 | 0.0 | 0.00 | 0.00 | 0.00 | 99 | 1015.5 |
| 20260906074656 | 56 | 23 | 0.0 | 1.0 | 0.00 | 0.00 | 0.00 | 99 | 1015.5 |
| 20260906074154 | 57 | 19 | 0.0 | 0.0 | 0.00 | 0.00 | 0.00 | 99 | 1015.3 |
| 20260906073649 | 57 | 14 | 0.0 | 0.0 | 0.00 | 0.00 | 0.00 | 99 | 1015.3 |
| 20260906073139 | 57 | 28 | 1.0 | 1.0 | 0.00 | 0.00 | 0.00 | 99 | 1015.3 |
| 20260906072634 | 57 | 17 | 0.0 | 0.0 | 0.00 | 0.00 | 0.00 | 99 | 1015.2 |
| 20260906072130 | 57 | 18 | 0.0 | 0.0 | 0.00 | 0.00 | 0.00 | 99 | 1015.2 |
| 20260906071626 | 58 | 21 | 0.0 | 0.0 | 0.00 | 0.00 | 0.00 | 99 | 1015.5 |
| 20260906071121 | 58 | 19 | 0.0 | 1.0 | 0.00 | 0.00 | 0.00 | 99 | 1015.2 |
| 20260906070618 | 58 | 25 | 1.0 | 1.0 | 0.00 | 0.00 | 0.00 | 99 | 1015.4 |
| 20260906070113 | 58 | 25 | 0.0 | 0.0 | 0.00 | 0.00 | 0.00 | 99 | 1015.2 |
| 20260906065613 | 58 | 22 | 0.0 | 0.0 | 0.00 | 0.00 | 0.00 | 99 | 1015.4 |
| 20260906065108 | 58 | 24 | 0.0 | 0.0 | 0.00 | 0.00 | 0.00 | 99 | 1015.4 |
| 20260906064603 | 58 | 25 | 0.0 | 1.0 | 0.00 | 0.00 | 0.00 | 99 | 1015.5 |
| 20260906064058 | 58 | 25 | 0.0 | 0.0 | 0.00 | 0.00 | 0.00 | 99 | 1015.6 |
| 20260906063553 | 58 | 28 | 0.0 | 0.0 | 0.00 | 0.00 | 0.00 | 99 | 1015.4 |
| 20260906063049 | 59 | 16 | 0.0 | 0.0 | 0.00 | 0.00 | 0.00 | 99 | 1015.5 |
| 20260906062544 | 59 | 19 | 0.0 | 0.0 | 0.00 | 0.00 | 0.00 | 99 | 1015.3 |
| 20260906062038 | 58 | 17 | 0.0 | 0.0 | 0.00 | 0.00 | 0.00 | 99 | 1015.5 |
| 20260906061535 | 59 | 18 | 0.0 | 0.0 | 0.00 | 0.00 | 0.00 | 99 | 1015.4 |
| 20260906061034 | 59 | 16 | 1.0 | 1.0 | 0.00 | 0.00 | 0.00 | 99 | 1015.6 |
| 20260906060531 | 59 | 18 | 0.0 | 0.0 | 0.00 | 0.00 | 0.00 | 99 | 1015.7 |
| 20260906060028 | 59 | 16 | 0.0 | 0.0 | 0.00 | 0.00 | 0.00 | 99 | 1015.4 |
| 20260906055523 | 59 | 17 | 0.0 | 0.0 | 0.00 | 0.00 | 0.00 | 99 | 1015.5 |
| 20260906055018 | 59 | 17 | 0.0 | 1.0 | 0.00 | 0.00 | 0.00 | 99 | 1015.6 |
| 20260906054513 | 59 | 20 | 0.0 | 0.0 | 0.00 | 0.00 | 0.00 | 99 | 1015.3 |
| 20260906054008 | 59 | 19 | 0.0 | 0.0 | 0.00 | 0.00 | 0.00 | 99 | 1015.4 |
| 20260906053504 | 59 | 20 | 0.0 | 0.0 | 0.00 | 0.00 | 0.00 | 99 | 1015.6 |
| 20260906053000 | 59 | 17 | 0.0 | 0.0 | 0.00 | 0.00 | 0.00 | 99 | 1015.8 |
| 20260906052455 | 59 | 17 | 0.0 | 0.0 | 0.00 | 0.00 | 0.00 | 99 | 1015.7 |
| 20260906051952 | 59 | 24 | 0.0 | 0.0 | 0.00 | 0.00 | 0.00 | 99 | 1015.8 |
| 20260906051448 | 59 | 17 | 1.0 | 1.0 | 0.00 | 0.00 | 0.00 | 99 | 1015.7 |
| 20260906050943 | 59 | 15 | 0.0 | 0.0 | 0.00 | 0.00 | 0.00 | 99 | 1015.8 |
| 20260906050442 | 59 | 16 | 0.0 | 0.0 | 0.00 | 0.00 | 0.00 | 99 | 1016.0 |
| 20260906045942 | 59 | 15 | 0.0 | 0.0 | 0.00 | 0.00 | 0.00 | 99 | 1015.8 |
| 20260906045441 | 59 | 17 | 0.0 | 0.0 | 0.00 | 0.00 | 0.00 | 99 | 1015.8 |
| 20260906044937 | 59 | 16 | 0.0 | 0.0 | 0.00 | 0.00 | 0.00 | 99 | 1015.7 |
| 20260906044432 | 60 | 14 | 0.0 | 0.0 | 0.00 | 0.00 | 0.00 | 99 | 1015.9 |
| 20260906043927 | 60 | 19 | 0.0 | 0.0 | 0.00 | 0.00 | 0.00 | 99 | 1015.8 |
| 20260906043423 | 60 | 17 | 0.0 | 0.0 | 0.00 | 0.00 | 0.00 | 99 | 1015.8 |
| 20260906042919 | 60 | 20 | 0.0 | 0.0 | 0.00 | 0.00 | 0.00 | 99 | 1015.8 |
| 20260906042418 | 60 | 18 | 0.0 | 0.0 | 0.00 | 0.00 | 0.00 | 99 | 1015.7 |
| 20260906041913 | 60 | 27 | 0.0 | 0.0 | 0.00 | 0.00 | 0.00 | 99 | 1015.8 |
| 20260906041409 | 60 | 22 | 0.0 | 0.0 | 0.00 | 0.00 | 0.00 | 99 | 1015.9 |
| 20260906040909 | 60 | 8 | 0.0 | 0.0 | 0.00 | 0.00 | 0.00 | 99 | 1015.6 |
| 20260906040404 | 60 | 19 | 0.0 | 0.0 | 0.00 | 0.00 | 0.00 | 99 | 1015.9 |
| 20260906035859 | 60 | 19 | 0.0 | 0.0 | 0.00 | 0.00 | 0.00 | 99 | 1015.8 |
| 20260906035354 | 60 | 15 | 0.0 | 0.0 | 0.00 | 0.00 | 0.00 | 99 | 1015.6 |
| 20260906034850 | 60 | 15 | 0.0 | 0.0 | 0.00 | 0.00 | 0.00 | 99 | 1015.5 |
| 20260906034344 | 60 | 14 | 0.0 | 0.0 | 0.00 | 0.00 | 0.00 | 99 | 1015.5 |
| 20260906033840 | 60 | 12 | 0.0 | 0.0 | 0.00 | 0.00 | 0.00 | 99 | 1015.4 |
| 20260906033339 | 60 | 19 | 0.0 | 0.0 | 0.00 | 0.00 | 0.00 | 99 | 1015.5 |
| 20260906032836 | 60 | 25 | 0.0 | 0.0 | 0.00 | 0.00 | 0.00 | 99 | 1015.4 |
| 20260906032331 | 60 | 11 | 0.0 | 0.0 | 0.00 | 0.00 | 0.00 | 99 | 1015.3 |
| 20260906031826 | 60 | 15 | 0.0 | 0.0 | 0.00 | 0.00 | 0.00 | 99 | 1015.3 |
| 20260906031322 | 61 | 23 | 0.0 | 0.0 | 0.00 | 0.00 | 0.00 | 99 | 1015.1 |
| 20260906030821 | 61 | 15 | 0.0 | 0.0 | 0.00 | 0.00 | 0.00 | 99 | 1015.3 |
| 20260906030317 | 61 | 7 | 0.0 | 0.0 | 0.00 | 0.00 | 0.00 | 99 | 1015.4 |
| 20260906025811 | 61 | 19 | 0.0 | 0.0 | 0.00 | 0.00 | 0.00 | 98 | 1015.3 |
| 20260906025306 | 62 | 27 | 0.0 | 0.0 | 0.00 | 0.00 | 0.00 | 97 | 1015.3 |
| 20260906024804 | 62 | 38 | 0.0 | 0.0 | 0.00 | 0.00 | 0.00 | 97 | 1015.5 |
| 20260906024303 | 62 | 35 | 0.0 | 1.0 | 0.00 | 0.00 | 0.00 | 96 | 1015.3 |
| 20260906023759 | 63 | 19 | 1.0 | 1.0 | 0.00 | 0.00 | 0.00 | 95 | 1015.3 |
| 20260906023254 | 63 | 30 | 1.0 | 1.0 | 0.00 | 0.00 | 0.00 | 95 | 1015.3 |
| 20260906022750 | 62 | 31 | 0.0 | 0.0 | 0.00 | 0.00 | 0.00 | 95 | 1015.4 |
| 20260906022245 | 62 | 25 | 0.0 | 0.0 | 0.00 | 0.00 | 0.00 | 96 | 1015.3 |
| 20260906021741 | 62 | 30 | 0.0 | 0.0 | 0.00 | 0.00 | 0.00 | 97 | 1015.3 |
| 20260906021240 | 63 | 31 | 0.0 | 0.0 | 0.00 | 0.00 | 0.00 | 96 | 1015.2 |
| 20260906020735 | 63 | 38 | 1.0 | 1.0 | 0.00 | 0.00 | 0.00 | 95 | 1015.2 |
| 20260906020235 | 63 | 34 | 0.0 | 0.0 | 0.00 | 0.00 | 0.00 | 94 | 1015.1 |
| 20260906015729 | 63 | 23 | 1.0 | 1.0 | 0.00 | 0.00 | 0.00 | 94 | 1015.2 |
| 20260906015228 | 63 | 13 | 0.0 | 0.0 | 0.00 | 0.00 | 0.00 | 93 | 1014.8 |
| 20260906014722 | 63 | 34 | 1.0 | 1.0 | 0.00 | 0.00 | 0.00 | 93 | 1015.0 |
| 20260906014219 | 64 | 54 | 1.0 | 1.0 | 0.00 | 0.00 | 0.00 | 93 | 1015.0 |
| 20260906013714 | 64 | 19 | 1.0 | 1.0 | 0.00 | 0.00 | 0.00 | 92 | 1015.1 |
| 20260906013214 | 64 | 25 | 0.0 | 1.0 | 0.00 | 0.00 | 0.00 | 91 | 1015.1 |
| 20260906012709 | 64 | 27 | 0.0 | 0.0 | 0.00 | 0.00 | 0.00 | 91 | 1015.2 |
| 20260906012204 | 64 | 43 | 1.0 | 1.0 | 0.00 | 0.00 | 0.00 | 93 | 1015.0 |
| 20260906011659 | 64 | 95 | 1.0 | 2.0 | 0.00 | 0.00 | 0.00 | 93 | 1015.0 |
| 20260906011154 | 64 | 9 | 0.0 | 0.0 | 0.00 | 0.00 | 0.00 | 92 | 1015.2 |
| 20260906010649 | 64 | 18 | 0.0 | 0.0 | 0.00 | 0.00 | 0.00 | 92 | 1015.0 |
| 20260906010146 | 64 | 17 | 0.0 | 0.0 | 0.00 | 0.00 | 0.00 | 91 | 1015.0 |
| 20260906005645 | 64 | 25 | 0.0 | 0.0 | 0.00 | 0.00 | 0.00 | 90 | 1015.0 |
| 20260906005144 | 64 | 28 | 0.0 | 1.0 | 0.00 | 0.00 | 0.00 | 91 | 1014.8 |
| 20260906004643 | 64 | 349 | 1.0 | 1.0 | 0.00 | 0.00 | 0.00 | 90 | 1014.7 |
| 20260906004139 | 65 | 17 | 0.0 | 0.0 | 0.00 | 0.00 | 0.00 | 90 | 1014.7 |
| 20260906003634 | 65 | 75 | 1.0 | 1.0 | 0.00 | 0.00 | 0.00 | 88 | 1014.5 |
| 20260906003130 | 65 | 352 | 1.0 | 1.0 | 0.00 | 0.00 | 0.00 | 88 | 1014.5 |
| 20260906002624 | 65 | 273 | 3.0 | 3.0 | 0.00 | 0.00 | 0.00 | 88 | 1014.5 |
| 20260906002119 | 65 | 30 | 0.0 | 1.0 | 0.00 | 0.00 | 0.00 | 88 | 1014.8 |
| 20260906001609 | 65 | 282 | 2.0 | 2.0 | 0.00 | 0.00 | 0.00 | 88 | 1014.6 |
| 20260906001109 | 65 | 37 | 0.0 | 0.0 | 0.00 | 0.00 | 0.00 | 88 | 1014.6 |
| 20260906000605 | 65 | 21 | 0.0 | 1.0 | 0.00 | 0.00 | 0.00 | 88 | 1014.5 |
| 20260906000100 | 66 | 215 | 1.0 | 2.0 | 0.00 | 0.00 | 0.00 | 88 | 1014.4 |
| 20260905235559 | 65 | 38 | 1.0 | 1.0 | 0.00 | 0.00 | 0.00 | 87 | 1014.5 |
| 20260905235054 | 65 | 17 | 0.0 | 1.0 | 0.00 | 0.00 | 0.00 | 87 | 1014.5 |
| 20260905234549 | 65 | 100 | 1.0 | 1.0 | 0.00 | 0.00 | 0.00 | 87 | 1014.5 |
| 20260905234044 | 66 | 60 | 1.0 | 1.0 | 0.00 | 0.00 | 0.00 | 86 | 1014.5 |
| 20260905233539 | 66 | 353 | 1.0 | 1.0 | 0.00 | 0.00 | 0.00 | 84 | 1014.4 |
| 20260905233039 | 67 | 347 | 1.0 | 1.0 | 0.00 | 0.00 | 0.00 | 84 | 1014.4 |
| 20260905232534 | 67 | 213 | 2.0 | 2.0 | 0.00 | 0.00 | 0.00 | 83 | 1014.1 |
| 20260905232029 | 67 | 114 | 1.0 | 2.0 | 0.00 | 0.00 | 0.00 | 83 | 1014.0 |
| 20260905231525 | 67 | 33 | 1.0 | 1.0 | 0.00 | 0.00 | 0.00 | 82 | 1014.3 |
| 20260905231021 | 67 | 6 | 0.0 | 0.0 | 0.00 | 0.00 | 0.00 | 82 | 1014.0 |
| 20260905230520 | 68 | 30 | 1.0 | 1.0 | 0.00 | 0.00 | 0.00 | 83 | 1014.3 |
| 20260905230018 | 68 | 305 | 3.0 | 3.0 | 0.00 | 0.00 | 0.00 | 81 | 1014.3 |
| 20260905225514 | 68 | 71 | 1.0 | 1.0 | 0.00 | 0.00 | 0.00 | 81 | 1014.4 |
| 20260905225009 | 68 | 10 | 0.0 | 1.0 | 0.00 | 0.00 | 0.00 | 81 | 1014.3 |
| 20260905224504 | 68 | 77 | 1.0 | 1.0 | 0.00 | 0.00 | 0.00 | 81 | 1014.1 |
| 20260905224003 | 68 | 61 | 1.0 | 2.0 | 0.00 | 0.00 | 0.00 | 82 | 1014.3 |
| 20260905223501 | 68 | 314 | 2.0 | 2.0 | 0.00 | 0.00 | 0.00 | 81 | 1014.1 |
| 20260905222955 | 68 | 340 | 1.0 | 1.0 | 0.00 | 0.00 | 0.00 | 81 | 1014.0 |
| 20260905222450 | 69 | 102 | 1.0 | 1.0 | 0.00 | 0.00 | 0.00 | 80 | 1014.2 |
| 20260905221945 | 69 | 31 | 1.0 | 1.0 | 0.00 | 0.00 | 0.00 | 79 | 1014.1 |
| 20260905221442 | 69 | 19 | 0.0 | 0.0 | 0.00 | 0.00 | 0.00 | 79 | 1013.9 |
| 20260905220938 | 69 | 2 | 0.0 | 0.0 | 0.00 | 0.00 | 0.00 | 78 | 1014.1 |
| 20260905220433 | 69 | 9 | 1.0 | 1.0 | 0.00 | 0.00 | 0.00 | 80 | 1014.1 |
| 20260905215933 | 69 | 118 | 1.0 | 2.0 | 0.00 | 0.00 | 0.00 | 77 | 1014.0 |
| 20260905215428 | 69 | 18 | 0.0 | 0.0 | 0.00 | 0.00 | 0.00 | 79 | 1014.0 |
| 20260905214924 | 69 | 12 | 1.0 | 1.0 | 0.00 | 0.00 | 0.00 | 80 | 1013.8 |
| 20260905214420 | 69 | 348 | 2.0 | 2.0 | 0.00 | 0.00 | 0.00 | 78 | 1013.9 |
| 20260905213920 | 69 | 86 | 2.0 | 2.0 | 0.00 | 0.00 | 0.00 | 76 | 1013.8 |
| 20260905213416 | 70 | 25 | 0.0 | 0.0 | 0.00 | 0.00 | 0.00 | 78 | 1013.8 |
| 20260905212911 | 70 | 93 | 0.0 | 0.0 | 0.00 | 0.00 | 0.00 | 76 | 1013.8 |
| 20260905212406 | 71 | 72 | 0.0 | 0.0 | 0.00 | 0.00 | 0.00 | 74 | 1013.8 |
| 20260905211900 | 70 | 15 | 0.0 | 0.0 | 0.00 | 0.00 | 0.00 | 76 | 1013.8 |
| 20260905211355 | 70 | 14 | 0.0 | 1.0 | 0.00 | 0.00 | 0.00 | 79 | 1013.8 |
| 20260905210852 | 69 | 281 | 2.0 | 2.0 | 0.00 | 0.00 | 0.00 | 75 | 1013.9 |